www.pogodaiklimat.ru

Погода и климат >> Архив погоды >> Россия >> Якутия >> Юрты


ПОГОДА в Юртах

  • Прогноз погоды в Юртах
  • Монитор погоды в Юртах
  • Климат города

АРХИВ ПОГОДЫ в Юртах

Время (UTC), дата Ветер
(напр.,м/с)
 
Видим.   Явления Облачность Т
(С)
Тd
(С)
f
(%)
Тe
(С)
Тes
(С)
Комфортность P
(гПа)
Po
(гПа)
Тmin
(С)
Tmax
(С)
R
(мм)
S
(см)
09 17.02 штиль 0 50 км ясно -46.0 -48.6 75 -46 -46 опасность
обморожения
1033.8 946.6 -40.8
12 17.02 штиль 0 50 км ясно -49.5 -51.8 77 -50 -50 опасность
обморожения
1035.1 946.5
15 17.02 штиль 0 50 км ясно -50.5 -53.1 74 -51 -51 опасность
обморожения
1035.1 946.2
18 17.02 штиль 0 50 км ясно -50.5 -53.1 74 -51 -51 опасность
обморожения
1035.6 946.6
21 17.02 штиль 0 50 км ясно -50.5 -53.1 74 -51 -51 опасность
обморожения
1035.3 946.4 -50.5 23
00 18.02 штиль 0 50 км ясно -51.0 -53.1 78 -51 -50 опасность
обморожения
1035.7 946.5 -51.0
03 18.02 Ю 2 50 км ясно -43.0 -46.2 71 -53 -51 опасность
обморожения
1031.7 945.8
06 18.02 штиль 0 50 км ясно -41.5 -45.7 64 -42 -41 опасность
обморожения
1029.4 944.3
09 18.02 штиль 0 50 км ясно -48.0 -49.6 83 -48 -48 опасность
обморожения
1031.4 944.1 -41.5
12 18.02 штиль 0 50 км ясно -51.0 -53.1 78 -51 -51 опасность
обморожения
1033.7 944.7
15 18.02 штиль 0 50 км ясно -52.0 -53.7 82 -52 -52 опасность
обморожения
1034.1 944.7
18 18.02 штиль 0 50 км ясно -52.1 -53.7 83 -52 -52 опасность
обморожения
1034.2 944.1
21 18.02 ЮВ 1 50 км ясно -50.0 -53.1 70 -56 -56 опасность
обморожения
1033.8 945.2 -52.1 23
00 19.02 СЗ 1 50 км ясно -50.5 -53.7 69 -57 -56 опасность
обморожения
1034.1 945.3 -50.5
03 19.02 Ю 1 50 км ясно -45.0 -48.4 68 -51 -49 опасность
обморожения
1031.2 944.6
06 19.02 штиль 0 50 км ясно -41.7 -46.2 61 -42 -41 опасность
обморожения
1029.7 944.0
09 19.02 штиль 0 50 км ясно -47.5 -51.2 65 -48 -48 опасность
обморожения
1031.8 944.3 -42.8
12 19.02 штиль 0 50 км ясно -50.5 -53.7 69 -51 -51 опасность
обморожения
1032.5 943.8
15 19.02 штиль 0 50 км ясно -53.0 -54.6 83 -53 -53 опасность
обморожения
1035.3 945.4
18 19.02 штиль 0 50 км ясно -53.4 -56.5 69 -53 -53 опасность
обморожения
1036.2 946.0
21 19.02 Ю 1 50 км ясно -51.0 -53.1 78 -57 -57 опасность
обморожения
1036.0 946.8 -53.4 23
00 20.02 Ю 1 50 км ясно -52.5 -54.6 78 -59 -58 опасность
обморожения
1036.9 947.1 -52.5
03 20.02 штиль 0 50 км ясно -45.0 -48.4 68 -45 -43 опасность
обморожения
1033.5 946.7
06 20.02 штиль 0 50 км ясно -42.5 -45.6 71 -43 -42 опасность
обморожения
1031.8 946.1
09 20.02 штиль 0 50 км 3/0
[Ci fib]
-45.0 -48.4 68 -45 -45 опасность
обморожения
1033.4 946.5 -42.5
12 20.02 штиль 0 50 км 3/0
[Ci fib]
-49.0 -51.8 72 -49 -49 опасность
обморожения
1035.3 946.9
15 20.02 штиль 0 20 км слабый снег 10/0
[Cs]
-47.5 -50.6 70 -48 -48 опасность
обморожения
1034.6 946.8
18 20.02 штиль 0 20 км слабый снег 10/0
[As op]
-43.0 -45.6 75 -43 -43 опасность
обморожения
1032.5 945.9
21 20.02 штиль 0 20 км слабый снег 10/0
[As trans]
-42.0 -45.0 72 -42 -42 опасность
обморожения
1030.7 945.3 -49.0 0.4 23
00 21.02 штиль 0 20 км слабый снег 10/0
[As trans]
-41.0 -43.8 74 -41 -41 опасность
обморожения
1030.9 945.8
03 21.02 штиль 0 50 км {снег} 10/0
[Cs]
-36.5 -39.4 74 -37 -35 опасность
обморожения
1027.4 944.1
06 21.02 штиль 0 50 км {снег} 10/0
[Cs]
-36.5 -39.4 74 -37 -36 опасность
обморожения
1027.4 944.1
09 21.02 штиль 0 50 км 10/0
[Cs]
-36.5 -39.4 74 -37 -37 опасность
обморожения
1028.1 944.7 -36.5 0.4
12 21.02 штиль 0 10 км слабый снег 10/0
[Cs]
-35.5 -38.4 75 -36 -36 опасность
обморожения
1028.2 945.2
15 21.02 штиль 0 10 км слабый снег 10/0
[As op]
-35.5 -38.4 75 -36 -36 опасность
обморожения
1027.5 944.5
18 21.02 штиль 0 10 км слабый снег 10/0
[As op]
-35.5 -38.4 75 -36 -36 опасность
обморожения
1026.9 944.0
21 21.02 штиль 0 10 км слабый снег 10/0
[As op]
-34.5 -37.4 75 -35 -35 опасность
обморожения
1026.2 943.6 -35.5 0.7 25
00 22.02 штиль 0 50 км {снег} 10/0
[As trans]
-33.0 -36.0 74 -33 -33 опасность
обморожения
1024.6 942.7
03 22.02 штиль 0 50 км 10/0
[As trans]
-31.0 -34.1 74 -31 -30 опасность
обморожения
1023.4 942.2
06 22.02 штиль 0 50 км 10/0
[As trans]
-30.0 -33.0 75 -30 -30 1020.4 939.8
09 22.02 штиль 0 50 км 10/0
[Cs]
-31.0 -34.1 74 -31 -31 опасность
обморожения
1022.4 941.3 -30.0
12 22.02 штиль 0 50 км 10/0
[Cs]
-34.0 -36.8 76 -34 -34 опасность
обморожения
1023.1 941.0
15 22.02 штиль 0 50 км 10/0
[Cs]
-36.0 -39.0 74 -36 -36 опасность
обморожения
1023.4 940.6
18 22.02 штиль 0 50 км 10/0
[Cs]
-36.5 -39.4 74 -37 -37 опасность
обморожения
1023.9 940.9
21 22.02 штиль 0 50 км 10/0
[Cs]
-34.0 -36.8 76 -34 -34 опасность
обморожения
1021.7 939.7 -36.5 25
00 23.02 штиль 0 50 км 10/0
[Cs]
-32.5 -34.8 80 -33 -32 опасность
обморожения
1020.7 939.3
03 23.02 штиль 0 50 км 10/0
[Cs]
-32.5 -34.8 80 -33 -31 опасность
обморожения
1020.7 939.3
06 23.02 штиль 0 50 км 10/0
[Cs]
-28.5 -31.7 74 -29 -28 1016.4 936.5
09 23.02 штиль 0 50 км 10/0
[Cs]
-30.0 -33.0 75 -30 -30 1016.4 936.1 -30.0
12 23.02 штиль 0 50 км 10/0
[Cs]
-30.0 -33.0 75 -30 -30 1016.2 935.9
15 23.02 штиль 0 50 км 10/0
[Cs]
-30.0 -33.0 75 -30 -30 1016.7 936.4
18 23.02 штиль 0 50 км 10/0
[Cs]
-33.4 -36.3 75 -33 -33 опасность
обморожения
1018.8 937.2
21 23.02 штиль 0 50 км ясно -43.6 -46.3 74 -44 -44 опасность
обморожения
1023.2 937.8 -43.6 25
00 24.02 штиль 0 50 км ясно -42.1 -45.0 73 -42 -41 опасность
обморожения
1023.6 938.7

 

Местоположение метеостанции Юрты (Якутия, Россия): широта 64.05 долгота 141.80 высота над уровнем моря 590 м.

В архиве по умолчанию представлена погода в Юртах за последнюю неделю. Архивные данные за месяц целиком и за предыдущие месяцы, начиная с января 2011 года, Вы можете получить, выбрав интересующий диапазон дат из раскрывающегося списка и нажав кнопку "Ввод!".

Внимание! Время в таблицах - всемирное. Для получения местного времени необходимо прибавить поправку, которая в Юртах равна 10 ч.

Смотрите также архив погоды в соседних городах и на ближайших метеорологических станциях:

Погода в Агаякане (Якутия, Россия) (80 км)
Погода в Усть-Нере (Якутия, Россия) (82 км)
Погода в Оймяконе (Якутия, Россия) (110 км)
Погода в Восточной (Якутия, Россия) (142 км)
Погода в Делянкире (Якутия, Россия) (187 км)
Погода в Усть-Моме (Якутия, Россия) (275 км)
Погода в Теплом Ключе (Якутия, Россия) (286 км)
Погода в Томпо (Якутия, Россия) (293 км)
Погода в Иэме (Якутия, Россия) (317 км)
Погода в Сусумане (Магаданская область, Россия) (344 км)

Пояснения к столбцам:

Ветер - указаны скорость ветра в м/с - средняя за 10 мин, порывы в срок и между сроками (в фигурных скобках) и направление, откуда дует ветер: С - северный, СВ - северо-восточный, В - восточный, ЮВ - юго-восточный, Ю - южный, ЮЗ - юго-западный, З - западный, СЗ - северо-западный.
Видимость - горизонтальная дальность видимости в метрах или километрах. При видимости от 1 до 10 км при отсутствии осадков обычно наблюдается дымка, при ухудшении видимости до 1 км и менее - туман. В сухую погоду видимость может ухудшаться дымом, пылью или мглою.
Явления - указаны атмосферные явления, наблюдавшиеся в срок или в последний час перед сроком; фигурными скобками обозначены явления, наблюдавшиеся между сроками (за 1-3 часа до срока); квадратными скобками обозначены град или гололедные отложения с указанием их диаметра в мм.
Облачность - указаны через наклонную черту общая и нижняя облачность в баллах и высота нижней границы облаков в метрах; квадратными скобками обозначены формы облаков: Ci - перистые, Cs - перисто-слоистые, Cc - перисто-кучевые, Ac - высококучевые, As - высокослоистые, Sc - слоисто-кучевые, Ns - слоисто-дождевые, Cu - кучевые, Cb - кучево-дождевые. Подробнее классификацию облаков см. в Атласе облаков (PDF).
T - Температура воздуха - температура, измеренная на высоте 2 м над землей.
Td - Температура точки росы - температура, при понижении до которой содержащийся в воздухе водяной пар достигнет насыщения.
f - Относительная влажность воздуха - влажноcть воздуха, измеренная на высоте 2 м над землей.
Te - Эффективная температура - температура, которую ощущает одетый по сезону человек в тени. Характеристика душности погоды. При расчете учитывается влияние влажности воздуха и скорости ветра на теплоощущения человека.
Tes - Эффективная температура на солнце - температура, которую ощущает человек, с поправкой на солнечный нагрев. Характеристика знойности погоды. Зависит от высоты солнца над горизонтом, облачности и скорости ветра. Ночью, в пасмурную погоду, а также при ветре 12 м/с и более поправка равна нулю.
P - Атмосферное давление - приведенное к уровню моря атмосферное давление.
Po - Атмосферное давление - измеренное на уровне метеостанции атмосферное давление.
Tmin - Минимальная температура - минимум температуры воздуха на высоте 2 м над землей.
Tmax - Максимальная температура - максимум температуры воздуха на высоте 2 м над землей.
R - Количество осадков - Количество выпавших осадков, мм. При наведении курсора мыши на число - период времени, за который выпало указанное количество осадков.
S - Снежный покров - Высота снежного покрова, см. При наведении курсора мыши на число - состояние снежного покрова и степень покрытия местности в баллах.